| time (UTC) | temp F | wind direction | speed MPH | gust MPH | rain 1hr in | rain 24hr in | rain mn in | humidity % | barometer mb |
| 20260902160906 | 72 | 270 | 3.0 | 3.0 | 0.00 | 0.00 | 0.00 | 50 | 1007.2 |
| 20260902160609 | 72 | 247 | 4.0 | 4.0 | 0.00 | 0.00 | 0.00 | 50 | 1007.2 |
| 20260902160306 | 72 | 270 | 4.0 | 4.0 | 0.00 | 0.00 | 0.00 | 52 | 1007.2 |
| 20260902160007 | 73 | 270 | 6.0 | 6.0 | 0.00 | 0.00 | 0.00 | 52 | 1007.0 |
| 20260902155705 | 73 | 270 | 5.0 | 5.0 | 0.00 | 0.00 | 0.00 | 51 | 1007.2 |
| 20260902155405 | 72 | 270 | 7.0 | 7.0 | 0.00 | 0.00 | 0.00 | 50 | 1007.2 |
| 20260902155109 | 73 | 270 | 6.0 | 6.0 | 0.00 | 0.00 | 0.00 | 51 | 1007.2 |
| 20260902154805 | 74 | 270 | 7.0 | 7.0 | 0.00 | 0.00 | 0.00 | 52 | 1007.2 |
| 20260902154505 | 74 | 270 | 4.0 | 4.0 | 0.00 | 0.00 | 0.00 | 51 | 1007.2 |
| 20260902154206 | 75 | 315 | 3.0 | 4.0 | 0.00 | 0.00 | 0.00 | 50 | 1007.2 |
| 20260902153906 | 75 | 292 | 5.0 | 5.0 | 0.00 | 0.00 | 0.00 | 51 | 1007.0 |
| 20260902153305 | 77 | 270 | 5.0 | 5.0 | 0.00 | 0.00 | 0.00 | 51 | 1007.2 |
| 20260902153005 | 76 | 337 | 3.0 | 3.0 | 0.00 | 0.00 | 0.00 | 52 | 1007.2 |
| 20260902152705 | 75 | 337 | 4.0 | 4.0 | 0.00 | 0.00 | 0.00 | 52 | 1007.2 |
| 20260902152106 | 74 | 337 | 6.0 | 6.0 | 0.00 | 0.00 | 0.00 | 51 | 1007.2 |
| 20260902151806 | 74 | 292 | 6.0 | 6.0 | 0.00 | 0.00 | 0.00 | 50 | 1007.2 |
| 20260902151506 | 74 | 270 | 3.0 | 4.0 | 0.00 | 0.00 | 0.00 | 50 | 1007.2 |
| 20260902151205 | 75 | 225 | 4.0 | 4.0 | 0.00 | 0.00 | 0.00 | 52 | 1007.2 |
| 20260902150606 | 73 | 225 | 6.0 | 6.0 | 0.00 | 0.00 | 0.00 | 53 | 1007.2 |
| 20260902150306 | 73 | 225 | 5.0 | 5.0 | 0.00 | 0.00 | 0.00 | 53 | 1007.2 |
| 20260902150005 | 73 | 225 | 3.0 | 3.0 | 0.00 | 0.00 | 0.00 | 53 | 1007.5 |
| 20260902145707 | 73 | 337 | 2.0 | 2.0 | 0.00 | 0.00 | 0.00 | 52 | 1007.5 |
| 20260902145405 | 73 | 270 | 5.0 | 5.0 | 0.00 | 0.00 | 0.00 | 52 | 1007.5 |
| 20260902144806 | 73 | 202 | 2.0 | 2.0 | 0.00 | 0.00 | 0.00 | 54 | 1007.5 |
| 20260902144506 | 73 | 202 | 5.0 | 5.0 | 0.00 | 0.00 | 0.00 | 53 | 1007.5 |
| 20260902144206 | 74 | 225 | 4.0 | 4.0 | 0.00 | 0.00 | 0.00 | 53 | 1007.5 |
| 20260902143905 | 73 | 337 | 3.0 | 3.0 | 0.00 | 0.00 | 0.00 | 54 | 1007.5 |
| 20260902143605 | 72 | 225 | 6.0 | 6.0 | 0.00 | 0.00 | 0.00 | 54 | 1007.5 |
| 20260902143306 | 73 | 270 | 5.0 | 5.0 | 0.00 | 0.00 | 0.00 | 53 | 1007.7 |
| 20260902143005 | 73 | 270 | 6.0 | 6.0 | 0.00 | 0.00 | 0.00 | 53 | 1007.5 |
| 20260902142705 | 72 | 270 | 4.0 | 4.0 | 0.00 | 0.00 | 0.00 | 52 | 1007.5 |
| 20260902142408 | 72 | 247 | 4.0 | 4.0 | 0.00 | 0.00 | 0.00 | 53 | 1007.7 |
| 20260902142106 | 72 | 337 | 5.0 | 5.0 | 0.00 | 0.00 | 0.00 | 53 | 1007.7 |
| 20260902141805 | 72 | 225 | 3.0 | 3.0 | 0.00 | 0.00 | 0.00 | 52 | 1007.5 |
| 20260902141505 | 72 | 202 | 6.0 | 6.0 | 0.00 | 0.00 | 0.00 | 54 | 1007.5 |
| 20260902141206 | 72 | 225 | 4.0 | 4.0 | 0.00 | 0.00 | 0.00 | 53 | 1007.5 |
| 20260902140905 | 72 | 337 | 4.0 | 4.0 | 0.00 | 0.00 | 0.00 | 53 | 1007.5 |
| 20260902140605 | 72 | 270 | 5.0 | 5.0 | 0.00 | 0.00 | 0.00 | 52 | 1007.5 |
| 20260902140306 | 72 | 270 | 6.0 | 6.0 | 0.00 | 0.00 | 0.00 | 52 | 1007.5 |
| 20260902140006 | 71 | 270 | 4.0 | 4.0 | 0.00 | 0.00 | 0.00 | 52 | 1007.5 |
| 20260902135706 | 72 | 202 | 6.0 | 6.0 | 0.00 | 0.00 | 0.00 | 52 | 1007.5 |
| 20260902135109 | 73 | 225 | 6.0 | 6.0 | 0.00 | 0.00 | 0.00 | 53 | 1007.5 |
| 20260902134805 | 73 | 225 | 3.0 | 3.0 | 0.00 | 0.00 | 0.00 | 53 | 1007.5 |
| 20260902134506 | 73 | 225 | 5.0 | 5.0 | 0.00 | 0.00 | 0.00 | 53 | 1007.5 |
| 20260902134206 | 73 | 202 | 2.0 | 2.0 | 0.00 | 0.00 | 0.00 | 54 | 1007.5 |
| 20260902133906 | 73 | 270 | 3.0 | 3.0 | 0.00 | 0.00 | 0.00 | 53 | 1007.5 |
| 20260902133606 | 73 | 270 | 3.0 | 3.0 | 0.00 | 0.00 | 0.00 | 53 | 1007.5 |
| 20260902133307 | 73 | 270 | 3.0 | 3.0 | 0.00 | 0.00 | 0.00 | 53 | 1007.5 |
| 20260902133006 | 73 | 292 | 2.0 | 2.0 | 0.00 | 0.00 | 0.00 | 53 | 1007.5 |
| 20260902132706 | 73 | 315 | 5.0 | 5.0 | 0.00 | 0.00 | 0.00 | 53 | 1007.5 |
| 20260902132408 | 74 | 270 | 5.0 | 5.0 | 0.00 | 0.00 | 0.00 | 54 | 1007.7 |
| 20260902132106 | 73 | 315 | 5.0 | 5.0 | 0.00 | 0.00 | 0.00 | 53 | 1007.7 |
| 20260902131805 | 73 | 270 | 5.0 | 5.0 | 0.00 | 0.00 | 0.00 | 53 | 1007.7 |
| 20260902131506 | 74 | 292 | 5.0 | 5.0 | 0.00 | 0.00 | 0.00 | 53 | 1007.7 |
| 20260902131205 | 73 | 270 | 3.0 | 4.0 | 0.00 | 0.00 | 0.00 | 54 | 1007.5 |
| 20260902130908 | 74 | 270 | 4.0 | 4.0 | 0.00 | 0.00 | 0.00 | 53 | 1007.7 |
| 20260902130605 | 74 | 292 | 2.0 | 2.0 | 0.00 | 0.00 | 0.00 | 52 | 1007.7 |
| 20260902130306 | 74 | 225 | 4.0 | 4.0 | 0.00 | 0.00 | 0.00 | 55 | 1007.7 |
| 20260902130007 | 74 | 270 | 4.0 | 4.0 | 0.00 | 0.00 | 0.00 | 54 | 1007.7 |
| 20260902125706 | 73 | 292 | 9.0 | 9.0 | 0.00 | 0.00 | 0.00 | 54 | 1007.7 |
| 20260902125406 | 74 | 202 | 8.0 | 8.0 | 0.00 | 0.00 | 0.00 | 57 | 1007.7 |
| 20260902124805 | 71 | 337 | 5.0 | 5.0 | 0.00 | 0.00 | 0.00 | 54 | 1007.7 |
| 20260902124506 | 71 | 270 | 3.0 | 3.0 | 0.00 | 0.00 | 0.00 | 56 | 1007.7 |
| 20260902124207 | 71 | 337 | 3.0 | 3.0 | 0.00 | 0.00 | 0.00 | 54 | 1008.0 |
| 20260902123905 | 71 | 225 | 4.0 | 4.0 | 0.00 | 0.00 | 0.00 | 57 | 1008.0 |
| 20260902123609 | 71 | 270 | 2.0 | 2.0 | 0.00 | 0.00 | 0.00 | 55 | 1008.0 |
| 20260902123306 | 71 | 270 | 4.0 | 4.0 | 0.00 | 0.00 | 0.00 | 54 | 1008.0 |
| 20260902123006 | 71 | 315 | 2.0 | 2.0 | 0.00 | 0.00 | 0.00 | 54 | 1008.0 |
| 20260902122705 | 71 | 292 | 3.0 | 3.0 | 0.00 | 0.00 | 0.00 | 54 | 1008.0 |
| 20260902122405 | 71 | 270 | 2.0 | 2.0 | 0.00 | 0.00 | 0.00 | 54 | 1008.2 |
| 20260902121806 | 71 | 270 | 5.0 | 5.0 | 0.00 | 0.00 | 0.00 | 53 | 1008.0 |
| 20260902121506 | 72 | 202 | 4.0 | 4.0 | 0.00 | 0.00 | 0.00 | 54 | 1008.0 |
| 20260902121205 | 73 | 225 | 2.0 | 2.0 | 0.00 | 0.00 | 0.00 | 54 | 1008.0 |
| 20260902120908 | 72 | 337 | 4.0 | 4.0 | 0.00 | 0.00 | 0.00 | 53 | 1008.0 |
| 20260902120605 | 73 | 180 | 2.0 | 2.0 | 0.00 | 0.00 | 0.00 | 56 | 1008.0 |
| 20260902120305 | 73 | 180 | 6.0 | 6.0 | 0.00 | 0.00 | 0.00 | 56 | 1008.0 |
| 20260902120005 | 72 | 270 | 4.0 | 4.0 | 0.00 | 0.00 | 0.00 | 55 | 1008.0 |
| 20260902115705 | 72 | 270 | 4.0 | 4.0 | 0.00 | 0.00 | 0.00 | 55 | 1008.2 |
| 20260902115106 | 71 | 270 | 4.0 | 4.0 | 0.00 | 0.00 | 0.00 | 56 | 1008.2 |
| 20260902114806 | 70 | 270 | 5.0 | 6.0 | 0.00 | 0.00 | 0.00 | 55 | 1008.2 |
| 20260902114505 | 71 | 270 | 4.0 | 4.0 | 0.00 | 0.00 | 0.00 | 55 | 1008.2 |
| 20260902114206 | 72 | 270 | 1.0 | 1.0 | 0.00 | 0.00 | 0.00 | 55 | 1008.2 |
| 20260902113605 | 71 | 337 | 4.0 | 4.0 | 0.00 | 0.00 | 0.00 | 55 | 1008.5 |
| 20260902113306 | 73 | 292 | 7.0 | 7.0 | 0.00 | 0.00 | 0.00 | 56 | 1008.5 |
| 20260902113005 | 73 | 225 | 2.0 | 2.0 | 0.00 | 0.00 | 0.00 | 58 | 1008.5 |
| 20260902112705 | 73 | 337 | 5.0 | 5.0 | 0.00 | 0.00 | 0.00 | 58 | 1008.5 |
| 20260902112406 | 72 | 292 | 3.0 | 3.0 | 0.00 | 0.00 | 0.00 | 58 | 1008.7 |
| 20260902112109 | 72 | 270 | 4.0 | 4.0 | 0.00 | 0.00 | 0.00 | 61 | 1008.5 |
| 20260902111806 | 71 | 270 | 1.0 | 1.0 | 0.00 | 0.00 | 0.00 | 62 | 1008.7 |
| 20260902111506 | 70 | 337 | 1.0 | 1.0 | 0.00 | 0.00 | 0.00 | 62 | 1008.7 |
| 20260902111205 | 69 | 225 | 2.0 | 2.0 | 0.00 | 0.00 | 0.00 | 61 | 1008.7 |
| 20260902110905 | 69 | 337 | 2.0 | 2.0 | 0.00 | 0.00 | 0.00 | 61 | 1008.7 |
| 20260902110307 | 68 | 292 | 5.0 | 5.0 | 0.00 | 0.00 | 0.00 | 60 | 1008.7 |
| 20260902110007 | 69 | 180 | 2.0 | 2.0 | 0.00 | 0.00 | 0.00 | 61 | 1008.7 |
| 20260902105706 | 68 | 270 | 4.0 | 4.0 | 0.00 | 0.00 | 0.00 | 61 | 1008.7 |
| 20260902105405 | 69 | 270 | 3.0 | 3.0 | 0.00 | 0.00 | 0.00 | 62 | 1008.7 |
| 20260902105106 | 68 | 225 | 2.0 | 2.0 | 0.00 | 0.00 | 0.00 | 63 | 1008.7 |
| 20260902104505 | 68 | 270 | 2.0 | 2.0 | 0.00 | 0.00 | 0.00 | 66 | 1008.7 |
| 20260902104206 | 68 | 22 | 1.0 | 1.0 | 0.00 | 0.00 | 0.00 | 66 | 1008.7 |
| 20260902103905 | 67 | 67 | 0.0 | 0.0 | 0.00 | 0.00 | 0.00 | 65 | 1008.7 |
| 20260902103606 | 67 | 180 | 4.0 | 4.0 | 0.00 | 0.00 | 0.00 | 65 | 1008.9 |
| 20260902103306 | 67 | 337 | 0.0 | 0.0 | 0.00 | 0.00 | 0.00 | 65 | 1008.9 |
| 20260902103006 | 67 | 315 | 1.0 | 1.0 | 0.00 | 0.00 | 0.00 | 67 | 1008.9 |
| 20260902102705 | 67 | 270 | 6.0 | 6.0 | 0.00 | 0.00 | 0.00 | 68 | 1008.9 |
| 20260902102405 | 67 | 270 | 3.0 | 3.0 | 0.00 | 0.00 | 0.00 | 69 | 1008.9 |
| 20260902102106 | 66 | 337 | 2.0 | 2.0 | 0.00 | 0.00 | 0.00 | 68 | 1009.2 |
| 20260902101806 | 66 | 270 | 2.0 | 2.0 | 0.00 | 0.00 | 0.00 | 69 | 1009.2 |
| 20260902101205 | 66 | 315 | 3.0 | 3.0 | 0.00 | 0.00 | 0.00 | 69 | 1009.2 |
| 20260902100906 | 66 | 22 | 0.0 | 0.0 | 0.00 | 0.00 | 0.00 | 69 | 1009.2 |
| 20260902100605 | 65 | 0 | 1.0 | 1.0 | 0.00 | 0.00 | 0.00 | 71 | 1009.2 |
| 20260902100306 | 65 | 337 | 0.0 | 0.0 | 0.00 | 0.00 | 0.00 | 71 | 1009.2 |
| 20260902100006 | 65 | 270 | 1.0 | 1.0 | 0.00 | 0.00 | 0.00 | 71 | 1009.2 |
| 20260902095706 | 64 | 202 | 1.0 | 1.0 | 0.00 | 0.00 | 0.00 | 71 | 1009.2 |
| 20260902095406 | 65 | 337 | 1.0 | 1.0 | 0.00 | 0.00 | 0.00 | 73 | 1009.2 |
| 20260902095106 | 65 | 337 | 0.0 | 0.0 | 0.00 | 0.00 | 0.00 | 73 | 1009.2 |
| 20260902094805 | 65 | 180 | 2.0 | 2.0 | 0.00 | 0.00 | 0.00 | 74 | 1009.2 |
| 20260902094205 | 65 | 180 | 4.0 | 4.0 | 0.00 | 0.00 | 0.00 | 74 | 1009.2 |
| 20260902093905 | 65 | 337 | 0.0 | 0.0 | 0.00 | 0.00 | 0.00 | 75 | 1009.2 |
| 20260902093606 | 65 | 202 | 2.0 | 2.0 | 0.00 | 0.00 | 0.00 | 75 | 1009.2 |
| 20260902093305 | 64 | 225 | 4.0 | 4.0 | 0.00 | 0.00 | 0.00 | 75 | 1009.2 |
| 20260902093005 | 64 | 225 | 3.0 | 3.0 | 0.00 | 0.00 | 0.00 | 75 | 1009.2 |
| 20260902092707 | 64 | 202 | 3.0 | 3.0 | 0.00 | 0.00 | 0.00 | 75 | 1009.2 |
| 20260902092406 | 64 | 225 | 0.0 | 0.0 | 0.00 | 0.00 | 0.00 | 76 | 1009.2 |
| 20260902092105 | 64 | 67 | 0.0 | 0.0 | 0.00 | 0.00 | 0.00 | 77 | 1009.2 |
| 20260902091806 | 64 | 112 | 1.0 | 1.0 | 0.00 | 0.00 | 0.00 | 77 | 1009.2 |
| 20260902091509 | 64 | 135 | 0.0 | 0.0 | 0.00 | 0.00 | 0.00 | 76 | 1009.2 |
| 20260902091206 | 63 | 180 | 0.0 | 0.0 | 0.00 | 0.00 | 0.00 | 77 | 1009.2 |
| 20260902090906 | 63 | 337 | 2.0 | 2.0 | 0.00 | 0.00 | 0.00 | 78 | 1009.2 |
| 20260902090606 | 64 | 337 | 0.0 | 0.0 | 0.00 | 0.00 | 0.00 | 78 | 1009.2 |
| 20260902090306 | 64 | 337 | 1.0 | 1.0 | 0.00 | 0.00 | 0.00 | 79 | 1009.2 |
| 20260902090005 | 64 | 112 | 0.0 | 0.0 | 0.00 | 0.00 | 0.00 | 79 | 1009.2 |
| 20260902085708 | 64 | 112 | 0.0 | 0.0 | 0.00 | 0.00 | 0.00 | 79 | 1009.2 |
| 20260902085405 | 64 | 90 | 0.0 | 0.0 | 0.00 | 0.00 | 0.00 | 79 | 1009.2 |
| 20260902085106 | 63 | 90 | 0.0 | 0.0 | 0.00 | 0.00 | 0.00 | 80 | 1009.2 |
| 20260902084806 | 63 | 90 | 0.0 | 0.0 | 0.00 | 0.00 | 0.00 | 80 | 1008.9 |
| 20260902084505 | 63 | 337 | 0.0 | 0.0 | 0.00 | 0.00 | 0.00 | 80 | 1008.9 |
| 20260902084206 | 63 | 90 | 1.0 | 1.0 | 0.00 | 0.00 | 0.00 | 80 | 1008.9 |
| 20260902083906 | 63 | 67 | 1.0 | 1.0 | 0.00 | 0.00 | 0.00 | 81 | 1009.2 |
| 20260902083606 | 63 | 112 | 0.0 | 0.0 | 0.00 | 0.00 | 0.00 | 81 | 1009.2 |
| 20260902083305 | 62 | 225 | 0.0 | 0.0 | 0.00 | 0.00 | 0.00 | 81 | 1009.2 |
| 20260902083006 | 62 | 337 | 1.0 | 1.0 | 0.00 | 0.00 | 0.00 | 81 | 1009.2 |
| 20260902082706 | 62 | 180 | 1.0 | 1.0 | 0.00 | 0.00 | 0.00 | 83 | 1009.2 |
| 20260902082409 | 62 | 202 | 1.0 | 1.0 | 0.00 | 0.00 | 0.00 | 83 | 1009.2 |
| 20260902082106 | 62 | 112 | 0.0 | 0.0 | 0.00 | 0.00 | 0.00 | 83 | 1009.2 |
| 20260902081806 | 62 | 135 | 0.0 | 0.0 | 0.00 | 0.00 | 0.00 | 84 | 1009.2 |
| 20260902081506 | 61 | 45 | 0.0 | 0.0 | 0.00 | 0.00 | 0.00 | 84 | 1009.2 |
| 20260902081206 | 61 | 135 | 0.0 | 0.0 | 0.00 | 0.00 | 0.00 | 84 | 1009.2 |
| 20260902080908 | 61 | 135 | 0.0 | 0.0 | 0.00 | 0.00 | 0.00 | 84 | 1009.2 |
| 20260902080606 | 61 | 202 | 0.0 | 0.0 | 0.00 | 0.00 | 0.00 | 85 | 1009.2 |
| 20260902080306 | 60 | 135 | 0.0 | 0.0 | 0.00 | 0.00 | 0.00 | 85 | 1008.9 |
| 20260902080006 | 60 | 112 | 0.0 | 0.0 | 0.00 | 0.00 | 0.00 | 85 | 1009.2 |
| 20260902075706 | 60 | 90 | 0.0 | 0.0 | 0.00 | 0.00 | 0.00 | 85 | 1008.9 |
| 20260902075105 | 59 | 135 | 0.0 | 0.0 | 0.00 | 0.00 | 0.00 | 86 | 1009.2 |
| 20260902074805 | 59 | 157 | 0.0 | 0.0 | 0.00 | 0.00 | 0.00 | 86 | 1009.2 |
| 20260902074505 | 59 | 0 | 0.0 | 0.0 | 0.00 | 0.00 | 0.00 | 85 | 1009.2 |
| 20260902074205 | 59 | 0 | 0.0 | 0.0 | 0.00 | 0.00 | 0.00 | 86 | 1009.2 |
| 20260902073906 | 58 | 0 | 0.0 | 0.0 | 0.00 | 0.00 | 0.00 | 86 | 1009.2 |
| 20260902073605 | 58 | 90 | 0.0 | 0.0 | 0.00 | 0.00 | 0.00 | 86 | 1009.2 |
| 20260902073306 | 58 | 90 | 0.0 | 0.0 | 0.00 | 0.00 | 0.00 | 86 | 1009.2 |
| 20260902073006 | 57 | 270 | 0.0 | 0.0 | 0.00 | 0.00 | 0.00 | 86 | 1009.2 |
| 20260902072405 | 57 | 337 | 0.0 | 0.0 | 0.00 | 0.00 | 0.00 | 87 | 1008.9 |
| 20260902072106 | 57 | 337 | 0.0 | 0.0 | 0.00 | 0.00 | 0.00 | 86 | 1008.9 |
| 20260902071805 | 56 | 90 | 0.0 | 0.0 | 0.00 | 0.00 | 0.00 | 86 | 1008.9 |
| 20260902071506 | 56 | 90 | 0.0 | 0.0 | 0.00 | 0.00 | 0.00 | 86 | 1008.7 |
| 20260902071206 | 56 | 112 | 0.0 | 0.0 | 0.00 | 0.00 | 0.00 | 86 | 1008.9 |
| 20260902070906 | 56 | 135 | 0.0 | 0.0 | 0.00 | 0.00 | 0.00 | 86 | 1008.9 |
| 20260902070605 | 56 | 135 | 0.0 | 0.0 | 0.00 | 0.00 | 0.00 | 87 | 1008.9 |
| 20260902070306 | 56 | 225 | 0.0 | 0.0 | 0.00 | 0.00 | 0.00 | 87 | 1008.9 |
| 20260902070007 | 55 | 225 | 0.0 | 0.0 | 0.00 | 0.00 | 0.00 | 86 | 1008.7 |
| 20260902065705 | 55 | 202 | 0.0 | 0.0 | 0.00 | 0.00 | 0.00 | 87 | 1008.9 |
| 20260902065409 | 56 | 225 | 0.0 | 0.0 | 0.00 | 0.00 | 0.00 | 87 | 1008.9 |
| 20260902065106 | 55 | 225 | 0.0 | 0.0 | 0.00 | 0.00 | 0.00 | 87 | 1008.7 |
| 20260902064805 | 55 | 337 | 0.0 | 0.0 | 0.00 | 0.00 | 0.00 | 87 | 1008.7 |
| 20260902064505 | 55 | 225 | 0.0 | 0.0 | 0.00 | 0.00 | 0.00 | 87 | 1008.7 |
| 20260902064206 | 55 | 247 | 0.0 | 0.0 | 0.00 | 0.00 | 0.00 | 87 | 1008.7 |
| 20260902063905 | 54 | 270 | 0.0 | 0.0 | 0.00 | 0.00 | 0.00 | 87 | 1008.7 |
| 20260902063605 | 54 | 270 | 0.0 | 0.0 | 0.00 | 0.00 | 0.00 | 87 | 1008.7 |
| 20260902063305 | 54 | 270 | 0.0 | 0.0 | 0.00 | 0.00 | 0.00 | 87 | 1008.9 |
| 20260902063006 | 54 | 337 | 0.0 | 0.0 | 0.00 | 0.00 | 0.00 | 87 | 1008.7 |
| 20260902062706 | 54 | 337 | 0.0 | 0.0 | 0.00 | 0.00 | 0.00 | 87 | 1008.7 |
| 20260902062408 | 53 | 202 | 0.0 | 0.0 | 0.00 | 0.00 | 0.00 | 87 | 1008.7 |
| 20260902062106 | 53 | 202 | 0.0 | 0.0 | 0.00 | 0.00 | 0.00 | 87 | 1008.7 |
| 20260902061806 | 54 | 180 | 0.0 | 0.0 | 0.00 | 0.00 | 0.00 | 87 | 1008.7 |
| 20260902061506 | 53 | 202 | 0.0 | 0.0 | 0.00 | 0.00 | 0.00 | 87 | 1008.7 |
| 20260902061205 | 53 | 180 | 0.0 | 0.0 | 0.00 | 0.00 | 0.00 | 87 | 1008.7 |
| 20260902060906 | 53 | 180 | 0.0 | 0.0 | 0.00 | 0.00 | 0.00 | 87 | 1008.7 |
| 20260902060306 | 52 | 337 | 0.0 | 0.0 | 0.00 | 0.00 | 0.00 | 86 | 1008.7 |
| 20260902060006 | 52 | 202 | 0.0 | 0.0 | 0.00 | 0.00 | 0.00 | 86 | 1008.7 |
| 20260902055706 | 51 | 180 | 0.0 | 0.0 | 0.00 | 0.00 | 0.00 | 86 | 1008.9 |
| 20260902055405 | 51 | 180 | 0.0 | 0.0 | 0.00 | 0.00 | 0.00 | 87 | 1008.7 |
| 20260902054806 | 51 | 180 | 0.0 | 0.0 | 0.00 | 0.00 | 0.00 | 87 | 1008.7 |
| 20260902054505 | 50 | 90 | 0.0 | 0.0 | 0.00 | 0.00 | 0.00 | 86 | 1008.9 |
| 20260902054206 | 50 | 90 | 0.0 | 0.0 | 0.00 | 0.00 | 0.00 | 86 | 1008.7 |
| 20260902053905 | 50 | 90 | 0.0 | 0.0 | 0.00 | 0.00 | 0.00 | 86 | 1008.9 |
| 20260902053306 | 49 | 90 | 0.0 | 0.0 | 0.00 | 0.00 | 0.00 | 85 | 1008.9 |
| 20260902053005 | 48 | 135 | 0.0 | 0.0 | 0.00 | 0.00 | 0.00 | 84 | 1008.9 |
| 20260902052705 | 48 | 337 | 0.0 | 0.0 | 0.00 | 0.00 | 0.00 | 84 | 1008.9 |
| 20260902052405 | 48 | 45 | 0.0 | 0.0 | 0.00 | 0.00 | 0.00 | 84 | 1009.2 |
| 20260902052106 | 48 | 45 | 0.0 | 0.0 | 0.00 | 0.00 | 0.00 | 84 | 1008.9 |
| 20260902051506 | 47 | 45 | 0.0 | 0.0 | 0.00 | 0.00 | 0.00 | 83 | 1008.9 |
| 20260902051205 | 47 | 45 | 0.0 | 0.0 | 0.00 | 0.00 | 0.00 | 84 | 1008.9 |
| 20260902050906 | 47 | 45 | 0.0 | 0.0 | 0.00 | 0.00 | 0.00 | 84 | 1008.7 |
| 20260902050307 | 46 | 45 | 0.0 | 0.0 | 0.00 | 0.00 | 0.00 | 84 | 1008.7 |
| 20260902050008 | 45 | 45 | 0.0 | 0.0 | 0.00 | 0.00 | 0.00 | 83 | 1008.7 |
| 20260902045706 | 45 | 45 | 0.0 | 0.0 | 0.00 | 0.00 | 0.00 | 82 | 1008.7 |
| 20260902045406 | 45 | 45 | 0.0 | 0.0 | 0.00 | 0.00 | 0.00 | 82 | 1008.7 |
| 20260902045107 | 45 | 45 | 0.0 | 0.0 | 0.00 | 0.00 | 0.00 | 82 | 1008.7 |
| 20260902044506 | 45 | 45 | 0.0 | 0.0 | 0.00 | 0.00 | 0.00 | 82 | 1008.7 |
| 20260902044206 | 45 | 45 | 0.0 | 0.0 | 0.00 | 0.00 | 0.00 | 81 | 1008.7 |
| 20260902043906 | 45 | 45 | 0.0 | 0.0 | 0.00 | 0.00 | 0.00 | 82 | 1008.7 |
| 20260902043606 | 45 | 337 | 0.0 | 0.0 | 0.00 | 0.00 | 0.00 | 81 | 1008.7 |
| 20260902043006 | 45 | 337 | 0.0 | 0.0 | 0.00 | 0.00 | 0.00 | 82 | 1008.7 |
| 20260902042706 | 45 | 45 | 0.0 | 0.0 | 0.00 | 0.00 | 0.00 | 82 | 1008.7 |
| 20260902042405 | 45 | 45 | 0.0 | 0.0 | 0.00 | 0.00 | 0.00 | 82 | 1008.7 |
| 20260902042106 | 45 | 45 | 0.0 | 0.0 | 0.00 | 0.00 | 0.00 | 82 | 1008.7 |
| 20260902041506 | 45 | 45 | 0.0 | 0.0 | 0.00 | 0.00 | 0.00 | 81 | 1008.7 |
| 20260902041205 | 45 | 45 | 0.0 | 0.0 | 0.00 | 0.00 | 0.00 | 82 | 1008.7 |
| 20260902040905 | 45 | 45 | 0.0 | 0.0 | 0.00 | 0.00 | 0.00 | 82 | 1008.7 |
| 20260902040606 | 46 | 45 | 0.0 | 0.0 | 0.00 | 0.00 | 0.00 | 82 | 1008.7 |
| 20260902040305 | 45 | 45 | 0.0 | 0.0 | 0.00 | 0.00 | 0.00 | 82 | 1008.7 |
| 20260902040005 | 46 | 337 | 0.0 | 0.0 | 0.00 | 0.00 | 0.00 | 82 | 1008.7 |
| 20260902035706 | 45 | 45 | 0.0 | 0.0 | 0.00 | 0.00 | 0.00 | 82 | 1008.7 |
| 20260902035405 | 45 | 45 | 0.0 | 0.0 | 0.00 | 0.00 | 0.00 | 82 | 1008.7 |
| 20260902035106 | 45 | 337 | 0.0 | 0.0 | 0.00 | 0.00 | 0.00 | 82 | 1008.7 |
| 20260902034806 | 45 | 45 | 0.0 | 0.0 | 0.00 | 0.00 | 0.00 | 81 | 1008.7 |
| 20260902034509 | 45 | 337 | 0.0 | 0.0 | 0.00 | 0.00 | 0.00 | 82 | 1008.7 |
| 20260902034206 | 45 | 135 | 0.0 | 0.0 | 0.00 | 0.00 | 0.00 | 82 | 1008.7 |
| 20260902033905 | 46 | 135 | 0.0 | 0.0 | 0.00 | 0.00 | 0.00 | 82 | 1008.7 |
| 20260902033606 | 46 | 135 | 0.0 | 0.0 | 0.00 | 0.00 | 0.00 | 82 | 1008.7 |
| 20260902033305 | 46 | 112 | 0.0 | 0.0 | 0.00 | 0.00 | 0.00 | 82 | 1008.7 |
| 20260902033006 | 46 | 112 | 0.0 | 0.0 | 0.00 | 0.00 | 0.00 | 82 | 1008.7 |
| 20260902032709 | 46 | 112 | 0.0 | 0.0 | 0.00 | 0.00 | 0.00 | 81 | 1008.7 |
| 20260902032106 | 46 | 112 | 0.0 | 0.0 | 0.00 | 0.00 | 0.00 | 81 | 1008.7 |
| 20260902031806 | 46 | 337 | 0.0 | 0.0 | 0.00 | 0.00 | 0.00 | 82 | 1008.7 |
| 20260902031506 | 46 | 112 | 0.0 | 0.0 | 0.00 | 0.00 | 0.00 | 81 | 1008.7 |
| 20260902031206 | 46 | 112 | 0.0 | 0.0 | 0.00 | 0.00 | 0.00 | 81 | 1008.7 |
| 20260902030906 | 46 | 112 | 0.0 | 0.0 | 0.00 | 0.00 | 0.00 | 82 | 1008.7 |
| 20260902030605 | 46 | 112 | 0.0 | 0.0 | 0.00 | 0.00 | 0.00 | 82 | 1008.7 |
| 20260902030306 | 46 | 180 | 0.0 | 0.0 | 0.00 | 0.00 | 0.00 | 82 | 1008.7 |
| 20260902030006 | 46 | 180 | 0.0 | 0.0 | 0.00 | 0.00 | 0.00 | 82 | 1008.7 |
| 20260902025706 | 47 | 180 | 0.0 | 0.0 | 0.00 | 0.00 | 0.00 | 82 | 1008.7 |
| 20260902025408 | 47 | 202 | 0.0 | 0.0 | 0.00 | 0.00 | 0.00 | 82 | 1008.7 |
| 20260902025106 | 46 | 337 | 0.0 | 0.0 | 0.00 | 0.00 | 0.00 | 81 | 1008.9 |
| 20260902024808 | 46 | 337 | 0.0 | 0.0 | 0.00 | 0.00 | 0.00 | 81 | 1008.7 |
| 20260902024506 | 46 | 337 | 0.0 | 0.0 | 0.00 | 0.00 | 0.00 | 81 | 1008.7 |
| 20260902024205 | 46 | 337 | 0.0 | 0.0 | 0.00 | 0.00 | 0.00 | 81 | 1008.7 |
| 20260902023905 | 46 | 90 | 0.0 | 0.0 | 0.00 | 0.00 | 0.00 | 81 | 1008.7 |
| 20260902023305 | 46 | 90 | 0.0 | 0.0 | 0.00 | 0.00 | 0.00 | 81 | 1008.7 |
| 20260902023006 | 46 | 337 | 0.0 | 0.0 | 0.00 | 0.00 | 0.00 | 81 | 1008.7 |
| 20260902022705 | 46 | 337 | 0.0 | 0.0 | 0.00 | 0.00 | 0.00 | 81 | 1008.7 |
| 20260902022406 | 46 | 112 | 0.0 | 0.0 | 0.00 | 0.00 | 0.00 | 81 | 1008.7 |
| 20260902021806 | 47 | 337 | 0.0 | 0.0 | 0.00 | 0.00 | 0.00 | 81 | 1008.7 |
| 20260902021506 | 47 | 112 | 0.0 | 0.0 | 0.00 | 0.00 | 0.00 | 81 | 1008.9 |
| 20260902021206 | 47 | 112 | 0.0 | 0.0 | 0.00 | 0.00 | 0.00 | 81 | 1008.7 |
| 20260902020906 | 47 | 112 | 0.0 | 0.0 | 0.00 | 0.00 | 0.00 | 81 | 1008.7 |
| 20260902020305 | 47 | 135 | 0.0 | 0.0 | 0.00 | 0.00 | 0.00 | 81 | 1008.7 |
| 20260902020005 | 47 | 90 | 0.0 | 0.0 | 0.00 | 0.00 | 0.00 | 80 | 1008.7 |
| 20260902015706 | 47 | 90 | 0.0 | 0.0 | 0.00 | 0.00 | 0.00 | 80 | 1008.7 |
| 20260902015405 | 47 | 90 | 0.0 | 0.0 | 0.00 | 0.00 | 0.00 | 80 | 1008.7 |
| 20260902015105 | 47 | 90 | 0.0 | 0.0 | 0.00 | 0.00 | 0.00 | 80 | 1008.7 |
| 20260902014506 | 47 | 90 | 0.0 | 0.0 | 0.00 | 0.00 | 0.00 | 80 | 1008.7 |
| 20260902014206 | 47 | 337 | 0.0 | 0.0 | 0.00 | 0.00 | 0.00 | 80 | 1008.7 |
| 20260902013905 | 47 | 90 | 0.0 | 0.0 | 0.00 | 0.00 | 0.00 | 80 | 1008.7 |
| 20260902013606 | 47 | 90 | 0.0 | 0.0 | 0.00 | 0.00 | 0.00 | 81 | 1008.7 |
| 20260902013305 | 47 | 90 | 0.0 | 0.0 | 0.00 | 0.00 | 0.00 | 80 | 1008.7 |
| 20260902012706 | 47 | 90 | 0.0 | 0.0 | 0.00 | 0.00 | 0.00 | 80 | 1008.7 |
| 20260902012405 | 48 | 90 | 0.0 | 0.0 | 0.00 | 0.00 | 0.00 | 80 | 1008.7 |
| 20260902012105 | 47 | 90 | 0.0 | 0.0 | 0.00 | 0.00 | 0.00 | 80 | 1008.7 |
| 20260902011806 | 48 | 90 | 0.0 | 0.0 | 0.00 | 0.00 | 0.00 | 80 | 1008.9 |
| 20260902011506 | 48 | 112 | 0.0 | 0.0 | 0.00 | 0.00 | 0.00 | 81 | 1008.7 |
| 20260902010906 | 48 | 112 | 0.0 | 0.0 | 0.00 | 0.00 | 0.00 | 80 | 1009.2 |
| 20260902010606 | 48 | 22 | 0.0 | 0.0 | 0.00 | 0.00 | 0.00 | 80 | 1009.2 |
| 20260902010306 | 48 | 22 | 0.0 | 0.0 | 0.00 | 0.00 | 0.00 | 79 | 1009.2 |
| 20260902010005 | 48 | 22 | 0.0 | 0.0 | 0.00 | 0.00 | 0.00 | 79 | 1009.2 |
| 20260902005405 | 48 | 22 | 0.0 | 0.0 | 0.00 | 0.00 | 0.00 | 79 | 1008.9 |
| 20260902005105 | 48 | 22 | 0.0 | 0.0 | 0.00 | 0.00 | 0.00 | 79 | 1008.9 |
| 20260902004805 | 48 | 22 | 0.0 | 0.0 | 0.00 | 0.00 | 0.00 | 79 | 1008.9 |
| 20260902004505 | 48 | 337 | 0.0 | 0.0 | 0.00 | 0.00 | 0.00 | 79 | 1008.9 |
| 20260902003906 | 48 | 22 | 0.0 | 0.0 | 0.00 | 0.00 | 0.00 | 79 | 1009.2 |
| 20260902003606 | 48 | 337 | 0.0 | 0.0 | 0.00 | 0.00 | 0.00 | 79 | 1008.9 |
| 20260902003305 | 48 | 22 | 0.0 | 0.0 | 0.00 | 0.00 | 0.00 | 79 | 1008.9 |
| 20260902002706 | 48 | 22 | 0.0 | 0.0 | 0.00 | 0.00 | 0.00 | 79 | 1009.2 |
| 20260902002405 | 48 | 22 | 0.0 | 0.0 | 0.00 | 0.00 | 0.00 | 79 | 1009.2 |
| 20260902002105 | 48 | 337 | 0.0 | 0.0 | 0.00 | 0.00 | 0.00 | 79 | 1009.2 |
| 20260902001805 | 49 | 22 | 0.0 | 0.0 | 0.00 | 0.00 | 0.00 | 80 | 1009.2 |
| 20260902001506 | 49 | 22 | 0.0 | 0.0 | 0.00 | 0.00 | 0.00 | 80 | 1009.2 |
| 20260902000905 | 49 | 22 | 0.0 | 0.0 | 0.00 | 0.00 | 0.00 | 79 | 1009.2 |
| 20260902000606 | 49 | 22 | 0.0 | 0.0 | 0.00 | 0.00 | 0.00 | 79 | 1009.2 |
| 20260902000306 | 49 | 337 | 0.0 | 0.0 | 0.00 | 0.00 | 0.00 | 80 | 1009.2 |
| 20260902000006 | 49 | 22 | 0.0 | 0.0 | 0.00 | 0.00 | 0.00 | 80 | 1009.2 |
| 20260901235406 | 49 | 22 | 0.0 | 0.0 | 0.00 | 0.00 | 0.00 | 79 | 1009.2 |
| 20260901235106 | 49 | 22 | 0.0 | 0.0 | 0.00 | 0.00 | 0.00 | 80 | 1009.2 |
| 20260901234805 | 49 | 22 | 0.0 | 0.0 | 0.00 | 0.00 | 0.00 | 79 | 1009.2 |
| 20260901234505 | 49 | 22 | 0.0 | 0.0 | 0.00 | 0.00 | 0.00 | 79 | 1009.2 |
| 20260901234206 | 49 | 22 | 0.0 | 0.0 | 0.00 | 0.00 | 0.00 | 80 | 1009.2 |
| 20260901233906 | 50 | 22 | 0.0 | 0.0 | 0.00 | 0.00 | 0.00 | 79 | 1009.2 |
| 20260901233605 | 50 | 337 | 0.0 | 0.0 | 0.00 | 0.00 | 0.00 | 80 | 1009.2 |
| 20260901233305 | 50 | 22 | 0.0 | 0.0 | 0.00 | 0.00 | 0.00 | 80 | 1009.2 |
| 20260901233006 | 50 | 22 | 0.0 | 0.0 | 0.00 | 0.00 | 0.00 | 79 | 1009.2 |
| 20260901232705 | 50 | 22 | 0.0 | 0.0 | 0.00 | 0.00 | 0.00 | 79 | 1009.2 |
| 20260901232106 | 50 | 22 | 0.0 | 0.0 | 0.00 | 0.00 | 0.00 | 79 | 1009.2 |
| 20260901231806 | 50 | 22 | 0.0 | 0.0 | 0.00 | 0.00 | 0.00 | 80 | 1009.2 |
| 20260901231506 | 51 | 22 | 0.0 | 0.0 | 0.00 | 0.00 | 0.00 | 80 | 1009.2 |
| 20260901231205 | 51 | 22 | 0.0 | 0.0 | 0.00 | 0.00 | 0.00 | 79 | 1009.2 |
| 20260901230906 | 50 | 22 | 0.0 | 0.0 | 0.00 | 0.00 | 0.00 | 80 | 1008.9 |
| 20260901230606 | 51 | 22 | 0.0 | 0.0 | 0.00 | 0.00 | 0.00 | 79 | 1009.2 |
| 20260901230306 | 51 | 22 | 0.0 | 0.0 | 0.00 | 0.00 | 0.00 | 80 | 1009.2 |
| 20260901230009 | 51 | 22 | 0.0 | 0.0 | 0.00 | 0.00 | 0.00 | 79 | 1009.2 |
| 20260901225706 | 51 | 22 | 0.0 | 0.0 | 0.00 | 0.00 | 0.00 | 79 | 1009.2 |
| 20260901225106 | 51 | 22 | 0.0 | 0.0 | 0.00 | 0.00 | 0.00 | 80 | 1008.9 |
| 20260901224805 | 51 | 90 | 0.0 | 0.0 | 0.00 | 0.00 | 0.00 | 80 | 1009.2 |
| 20260901224505 | 51 | 90 | 0.0 | 0.0 | 0.00 | 0.00 | 0.00 | 79 | 1009.2 |
| 20260901224206 | 51 | 90 | 0.0 | 0.0 | 0.00 | 0.00 | 0.00 | 80 | 1009.2 |
| 20260901223606 | 51 | 90 | 0.0 | 0.0 | 0.00 | 0.00 | 0.00 | 79 | 1009.2 |
| 20260901223306 | 51 | 90 | 0.0 | 0.0 | 0.00 | 0.00 | 0.00 | 79 | 1009.2 |
| 20260901223006 | 51 | 90 | 0.0 | 0.0 | 0.00 | 0.00 | 0.00 | 79 | 1009.2 |
| 20260901222705 | 51 | 90 | 0.0 | 0.0 | 0.00 | 0.00 | 0.00 | 79 | 1009.2 |
| 20260901222106 | 51 | 112 | 0.0 | 0.0 | 0.00 | 0.00 | 0.00 | 79 | 1009.2 |
| 20260901221806 | 51 | 112 | 0.0 | 0.0 | 0.00 | 0.00 | 0.00 | 79 | 1009.2 |
| 20260901221506 | 52 | 202 | 0.0 | 0.0 | 0.00 | 0.00 | 0.00 | 79 | 1009.2 |
| 20260901221205 | 52 | 180 | 0.0 | 0.0 | 0.00 | 0.00 | 0.00 | 79 | 1008.9 |
| 20260901220906 | 52 | 180 | 0.0 | 0.0 | 0.00 | 0.00 | 0.00 | 79 | 1008.9 |
| 20260901220608 | 52 | 202 | 0.0 | 0.0 | 0.00 | 0.00 | 0.00 | 79 | 1009.2 |
| 20260901220305 | 52 | 202 | 1.0 | 1.0 | 0.00 | 0.00 | 0.00 | 79 | 1008.9 |
| 20260901220007 | 52 | 0 | 0.0 | 0.0 | 0.00 | 0.00 | 0.00 | 79 | 1009.2 |
| 20260901215706 | 52 | 157 | 1.0 | 1.0 | 0.00 | 0.00 | 0.02 | 79 | 1008.9 |
| 20260901215406 | 52 | 0 | 0.0 | 0.0 | 0.00 | 0.00 | 0.02 | 79 | 1008.9 |
| 20260901214806 | 52 | 135 | 0.0 | 0.0 | 0.00 | 0.00 | 0.02 | 79 | 1009.2 |
| 20260901214506 | 52 | 112 | 0.0 | 0.0 | 0.00 | 0.00 | 0.02 | 79 | 1009.2 |
| 20260901214205 | 52 | 337 | 0.0 | 0.0 | 0.00 | 0.00 | 0.02 | 79 | 1008.9 |
| 20260901213907 | 52 | 202 | 1.0 | 1.0 | 0.00 | 0.00 | 0.02 | 79 | 1009.2 |
| 20260901213306 | 53 | 202 | 2.0 | 2.0 | 0.00 | 0.00 | 0.02 | 79 | 1009.2 |
| 20260901213006 | 53 | 180 | 1.0 | 1.0 | 0.00 | 0.00 | 0.02 | 79 | 1009.2 |
| 20260901212705 | 53 | 202 | 0.0 | 0.0 | 0.00 | 0.00 | 0.02 | 79 | 1008.9 |
| 20260901212407 | 53 | 202 | 0.0 | 0.0 | 0.00 | 0.00 | 0.02 | 78 | 1008.9 |
| 20260901212105 | 53 | 337 | 0.0 | 0.0 | 0.00 | 0.00 | 0.02 | 78 | 1009.2 |
| 20260901211805 | 53 | 270 | 0.0 | 0.0 | 0.00 | 0.00 | 0.02 | 78 | 1008.9 |
| 20260901211505 | 53 | 202 | 0.0 | 0.0 | 0.00 | 0.00 | 0.02 | 78 | 1009.2 |
| 20260901211205 | 52 | 337 | 0.0 | 0.0 | 0.00 | 0.00 | 0.02 | 78 | 1008.9 |
| 20260901210905 | 52 | 90 | 1.0 | 1.0 | 0.00 | 0.00 | 0.02 | 77 | 1008.9 |
| 20260901210305 | 53 | 45 | 0.0 | 0.0 | 0.00 | 0.00 | 0.02 | 77 | 1008.9 |
| 20260901210007 | 53 | 45 | 0.0 | 0.0 | 0.00 | 0.00 | 0.02 | 77 | 1008.7 |
| 20260901205705 | 53 | 0 | 0.0 | 0.0 | 0.00 | 0.00 | 0.02 | 77 | 1008.9 |
| 20260901205406 | 53 | 0 | 0.0 | 0.0 | 0.00 | 0.00 | 0.02 | 77 | 1008.9 |
| 20260901205108 | 53 | 22 | 0.0 | 0.0 | 0.00 | 0.00 | 0.02 | 76 | 1008.9 |
| 20260901204806 | 53 | 0 | 0.0 | 0.0 | 0.00 | 0.00 | 0.02 | 76 | 1008.7 |
| 20260901204505 | 53 | 22 | 0.0 | 0.0 | 0.00 | 0.00 | 0.02 | 76 | 1008.7 |
| 20260901204206 | 53 | 22 | 0.0 | 0.0 | 0.00 | 0.00 | 0.02 | 76 | 1008.7 |
| 20260901203905 | 53 | 22 | 0.0 | 0.0 | 0.00 | 0.00 | 0.02 | 76 | 1008.7 |
| 20260901203608 | 53 | 337 | 0.0 | 0.0 | 0.00 | 0.00 | 0.02 | 76 | 1008.7 |
| 20260901203306 | 54 | 22 | 0.0 | 0.0 | 0.00 | 0.00 | 0.02 | 76 | 1008.7 |
| 20260901203006 | 54 | 22 | 0.0 | 0.0 | 0.00 | 0.00 | 0.02 | 76 | 1008.7 |
| 20260901202706 | 54 | 22 | 0.0 | 0.0 | 0.00 | 0.00 | 0.02 | 76 | 1008.7 |
| 20260901202106 | 54 | 337 | 0.0 | 0.0 | 0.00 | 0.00 | 0.02 | 76 | 1008.7 |
| 20260901201806 | 54 | 22 | 0.0 | 0.0 | 0.00 | 0.00 | 0.02 | 76 | 1008.7 |
| 20260901201506 | 54 | 22 | 0.0 | 0.0 | 0.00 | 0.00 | 0.02 | 76 | 1008.5 |
| 20260901201205 | 54 | 337 | 0.0 | 0.0 | 0.00 | 0.00 | 0.02 | 75 | 1008.5 |
| 20260901200906 | 54 | 22 | 0.0 | 0.0 | 0.00 | 0.00 | 0.02 | 75 | 1008.7 |
| 20260901200305 | 55 | 22 | 0.0 | 0.0 | 0.00 | 0.00 | 0.02 | 75 | 1008.7 |
| 20260901200006 | 54 | 22 | 0.0 | 0.0 | 0.00 | 0.00 | 0.02 | 75 | 1008.7 |
| 20260901195706 | 55 | 22 | 0.0 | 0.0 | 0.00 | 0.00 | 0.02 | 75 | 1008.7 |
| 20260901195405 | 55 | 22 | 0.0 | 0.0 | 0.00 | 0.00 | 0.02 | 75 | 1008.5 |
| 20260901195106 | 55 | 22 | 0.0 | 0.0 | 0.00 | 0.00 | 0.02 | 75 | 1008.7 |
| 20260901194806 | 56 | 22 | 0.0 | 0.0 | 0.00 | 0.00 | 0.02 | 76 | 1008.5 |
| 20260901194506 | 56 | 337 | 0.0 | 0.0 | 0.00 | 0.00 | 0.02 | 75 | 1008.5 |
| 20260901194205 | 56 | 22 | 0.0 | 0.0 | 0.00 | 0.00 | 0.02 | 75 | 1008.5 |
| 20260901193906 | 56 | 22 | 0.0 | 0.0 | 0.00 | 0.00 | 0.02 | 75 | 1008.5 |
| 20260901193605 | 56 | 22 | 0.0 | 0.0 | 0.00 | 0.00 | 0.02 | 75 | 1008.5 |
| 20260901193305 | 56 | 22 | 0.0 | 0.0 | 0.00 | 0.00 | 0.02 | 75 | 1008.5 |
| 20260901193006 | 56 | 22 | 0.0 | 0.0 | 0.00 | 0.00 | 0.02 | 75 | 1008.5 |
| 20260901192705 | 56 | 337 | 0.0 | 0.0 | 0.00 | 0.00 | 0.02 | 75 | 1008.5 |
| 20260901192406 | 57 | 337 | 0.0 | 0.0 | 0.00 | 0.00 | 0.02 | 75 | 1008.5 |
| 20260901192106 | 57 | 337 | 0.0 | 0.0 | 0.00 | 0.00 | 0.02 | 75 | 1008.5 |
| 20260901191809 | 57 | 337 | 0.0 | 0.0 | 0.00 | 0.00 | 0.02 | 75 | 1008.5 |
| 20260901191506 | 57 | 22 | 0.0 | 0.0 | 0.00 | 0.00 | 0.02 | 75 | 1008.5 |
| 20260901191206 | 57 | 22 | 0.0 | 0.0 | 0.00 | 0.00 | 0.02 | 76 | 1008.2 |
| 20260901190906 | 57 | 22 | 0.0 | 0.0 | 0.00 | 0.00 | 0.02 | 75 | 1008.2 |
| 20260901190606 | 57 | 337 | 0.0 | 0.0 | 0.00 | 0.00 | 0.02 | 74 | 1008.2 |
| 20260901190306 | 57 | 22 | 0.0 | 0.0 | 0.00 | 0.00 | 0.02 | 74 | 1008.2 |
| 20260901190006 | 58 | 22 | 0.0 | 0.0 | 0.00 | 0.00 | 0.02 | 74 | 1008.2 |
| 20260901185706 | 58 | 22 | 0.0 | 0.0 | 0.00 | 0.00 | 0.02 | 75 | 1008.2 |
| 20260901185407 | 59 | 337 | 0.0 | 0.0 | 0.00 | 0.00 | 0.02 | 75 | 1008.2 |
| 20260901185105 | 59 | 22 | 0.0 | 0.0 | 0.00 | 0.00 | 0.02 | 75 | 1008.2 |
| 20260901184805 | 59 | 22 | 0.0 | 0.0 | 0.00 | 0.00 | 0.02 | 75 | 1008.2 |
| 20260901184509 | 59 | 22 | 0.0 | 0.0 | 0.00 | 0.00 | 0.02 | 75 | 1008.2 |
| 20260901184206 | 59 | 22 | 0.0 | 0.0 | 0.00 | 0.00 | 0.02 | 75 | 1008.2 |
| 20260901183906 | 59 | 67 | 0.0 | 0.0 | 0.00 | 0.00 | 0.02 | 75 | 1008.2 |
| 20260901183606 | 60 | 90 | 0.0 | 0.0 | 0.00 | 0.00 | 0.02 | 75 | 1008.2 |
| 20260901183306 | 60 | 90 | 0.0 | 0.0 | 0.00 | 0.00 | 0.02 | 75 | 1008.2 |
| 20260901183006 | 61 | 67 | 0.0 | 0.0 | 0.00 | 0.00 | 0.02 | 75 | 1008.2 |
| 20260901182706 | 61 | 337 | 0.0 | 0.0 | 0.00 | 0.00 | 0.02 | 75 | 1008.2 |
| 20260901182405 | 61 | 67 | 0.0 | 0.0 | 0.00 | 0.00 | 0.02 | 75 | 1008.2 |
| 20260901182105 | 61 | 337 | 0.0 | 0.0 | 0.00 | 0.00 | 0.02 | 75 | 1008.2 |
| 20260901181806 | 61 | 315 | 0.0 | 0.0 | 0.00 | 0.00 | 0.02 | 74 | 1008.2 |
| 20260901181508 | 61 | 337 | 0.0 | 0.0 | 0.00 | 0.00 | 0.02 | 74 | 1008.0 |
| 20260901181206 | 61 | 90 | 0.0 | 0.0 | 0.00 | 0.00 | 0.02 | 74 | 1008.0 |
| 20260901180906 | 62 | 90 | 0.0 | 0.0 | 0.00 | 0.00 | 0.02 | 75 | 1008.0 |
| 20260901180606 | 62 | 90 | 0.0 | 0.0 | 0.00 | 0.00 | 0.02 | 74 | 1008.0 |
| 20260901180306 | 62 | 337 | 0.0 | 0.0 | 0.00 | 0.00 | 0.02 | 75 | 1008.0 |
| 20260901180005 | 62 | 90 | 0.0 | 0.0 | 0.00 | 0.00 | 0.02 | 75 | 1007.7 |
| 20260901175405 | 63 | 337 | 0.0 | 0.0 | 0.00 | 0.00 | 0.02 | 74 | 1007.7 |
| 20260901175106 | 63 | 90 | 0.0 | 0.0 | 0.00 | 0.00 | 0.02 | 74 | 1007.5 |
| 20260901174805 | 63 | 337 | 0.0 | 0.0 | 0.00 | 0.00 | 0.02 | 74 | 1007.7 |
| 20260901174507 | 63 | 90 | 0.0 | 0.0 | 0.00 | 0.00 | 0.02 | 74 | 1007.7 |
| 20260901174206 | 64 | 90 | 0.0 | 0.0 | 0.00 | 0.00 | 0.02 | 74 | 1007.7 |
| 20260901173908 | 64 | 112 | 0.0 | 0.0 | 0.00 | 0.00 | 0.02 | 74 | 1007.7 |
| 20260901173606 | 64 | 112 | 0.0 | 0.0 | 0.00 | 0.00 | 0.02 | 74 | 1007.7 |
| 20260901173305 | 64 | 67 | 0.0 | 0.0 | 0.00 | 0.00 | 0.02 | 74 | 1007.7 |
| 20260901173005 | 64 | 22 | 0.0 | 0.0 | 0.00 | 0.00 | 0.02 | 74 | 1007.7 |
| 20260901172706 | 65 | 22 | 0.0 | 0.0 | 0.00 | 0.00 | 0.02 | 74 | 1007.5 |
| 20260901172408 | 65 | 22 | 0.0 | 0.0 | 0.00 | 0.00 | 0.02 | 74 | 1007.5 |
| 20260901172106 | 65 | 22 | 0.0 | 0.0 | 0.00 | 0.00 | 0.02 | 73 | 1007.5 |
| 20260901171806 | 65 | 22 | 0.0 | 0.0 | 0.00 | 0.00 | 0.02 | 72 | 1007.7 |
| 20260901171505 | 65 | 22 | 0.0 | 0.0 | 0.00 | 0.00 | 0.02 | 72 | 1007.7 |
| 20260901171208 | 66 | 337 | 0.0 | 0.0 | 0.00 | 0.00 | 0.02 | 72 | 1007.5 |
| 20260901170905 | 66 | 0 | 0.0 | 0.0 | 0.00 | 0.00 | 0.02 | 72 | 1007.7 |
| 20260901170605 | 66 | 337 | 0.0 | 0.0 | 0.00 | 0.00 | 0.02 | 72 | 1007.7 |
| 20260901170305 | 66 | 0 | 0.0 | 0.0 | 0.00 | 0.00 | 0.02 | 71 | 1007.7 |
| 20260901165706 | 68 | 225 | 0.0 | 0.0 | 0.00 | 0.00 | 0.02 | 71 | 1007.7 |
| 20260901165406 | 69 | 337 | 0.0 | 0.0 | 0.00 | 0.00 | 0.02 | 71 | 1007.5 |
| 20260901165106 | 69 | 337 | 0.0 | 0.0 | 0.00 | 0.00 | 0.02 | 71 | 1007.5 |
| 20260901164806 | 69 | 112 | 0.0 | 0.0 | 0.00 | 0.00 | 0.02 | 70 | 1007.5 |
| 20260901164205 | 69 | 337 | 0.0 | 0.0 | 0.00 | 0.00 | 0.02 | 70 | 1007.7 |
| 20260901163906 | 69 | 112 | 0.0 | 0.0 | 0.00 | 0.00 | 0.02 | 70 | 1007.7 |
| 20260901163605 | 69 | 112 | 0.0 | 0.0 | 0.00 | 0.00 | 0.02 | 71 | 1007.7 |
| 20260901163305 | 69 | 112 | 0.0 | 0.0 | 0.00 | 0.00 | 0.02 | 70 | 1007.7 |
| 20260901163006 | 69 | 135 | 0.0 | 0.0 | 0.00 | 0.00 | 0.02 | 70 | 1007.7 |
| 20260901162709 | 68 | 337 | 0.0 | 0.0 | 0.00 | 0.00 | 0.02 | 70 | 1007.7 |
| 20260901162406 | 69 | 337 | 0.0 | 0.0 | 0.00 | 0.00 | 0.02 | 70 | 1007.7 |
| 20260901162105 | 69 | 157 | 1.0 | 1.0 | 0.00 | 0.00 | 0.02 | 71 | 1007.7 |
| 20260901161806 | 69 | 135 | 0.0 | 0.0 | 0.00 | 0.00 | 0.02 | 72 | 1007.7 |
| 20260901161505 | 69 | 157 | 0.0 | 0.0 | 0.00 | 0.00 | 0.02 | 72 | 1007.7 |
| 20260901161205 | 68 | 337 | 0.0 | 0.0 | 0.00 | 0.00 | 0.02 | 71 | 1007.7 |